THOR ABLESTAR DEB, 543

Orbit data source: Space-Track

THOR ABLESTAR DEB, 543 is space debris in LEO originally from a launch on Thu, 29 Jun 1961 UTC launched from the Air Force Eastern Test Range (AFETR). Debris objects in space refer to the collection of defunct objects orbiting the Earth. Examples of debris include non-operational satellites, rocket bodies, and fragments generated from explosions, collisions, or faulty payload assembly.

Loading next visibility...
Identifier
543, 1961-015GC
Orbit
LEO
Last TLE update
9 hours ago
Origin
Manufacturer
Unknown
Mission
Spacecraft
Bus & Motor
Unknown
Mass
Unknown
Launch date (UTC)
1961-06-29 (64 years ago)
Launch vehicle
Unknown
Launch site
Air Force Eastern Test Range (AFETR)
Object type
Payload
Rocket body
Debris
Shape & HBR
Unknown
Radar Cross Section
Small (<0.1 m²)

Expand to show TLE details & history

TLE from 9 hours ago
0 THOR ABLESTAR DEB
1   543U 61015GC  25182.67177597  .00000049  00000-0  13626-3 0  9996
2   543  67.0322  41.6552 0061964  93.0525 327.4443 13.69070935189252
Epoch: 2025-07-01T16:07Z
TLE epoch observation values (Epoch: 2025-07-01T16:07:21.443Z)
Latitude
53.08119°
Longitude
-86.01327°
Altitude
972.277 km
Speed
7.39 km/s
True Right ascension
05h 03m 09s
True Declination
52° 55' 15"
Sunlit
Object was in daylight at epoch
Visualization orbit readout
Latitude
56.06211°
Longitude
20.18111°
Altitude
969.304 km
Speed
7.394 km/s
Apparent Right ascension
03h 35m 41s
Apparent Declination
60° 15' 38"
Sunlit
Object is in daylight
Visualization observer readout
Local Sidereal Time
12:50:18
Azimuth
340.092° N
Elevation
15.756°
Doppler factor
1
Orbital elements
Apogee altitude
1,047.018 km
Perigee altitude
955.567 km
Semi-major axis
7,379.429 km
Eccentricity
0.0062
Inclination
67.0322°
RAAN
41.6552°
Arg. of periapsis
93.0525°
True anomaly
Unknown
Mean anomaly
327.4443°
Eccentric anomaly
Unknown
Mean motion
3.4238 °/min
Orbital period
105.15 mins
BSTAR
0.00013626
Loading maneuver chart data...
Loading SW <> Apogee altitude chart data...

THOR ABLESTAR DEB Visibility forecast

Observer location: undefined°, undefined°

Span
Click to sort rows by Start time (UTC) header in descending order
Start Az.
Max El. time (UTC)
Max El. Az.
Max El.
End time (UTC)
End Az.
11 mins2025-07-02 01:09:26.128Z339.999° N2025-07-02 01:14:26.128Z53.764° ENE41.313°2025-07-02 01:20:26.128Z137.986° SSE
7 mins2025-07-02 02:59:26.128Z287.008° WNW2025-07-02 03:02:26.128Z250.72° W20.082°2025-07-02 03:06:26.128Z209.797° SW
7 mins2025-07-02 14:45:26.128Z137.99° SSE2025-07-02 14:48:26.128Z105.095° ESE18.524°2025-07-02 14:52:26.128Z63.295° ENE
10 mins2025-07-02 16:31:26.128Z221.641° SW2025-07-02 16:36:26.128Z325.11° NNW42.218°2025-07-02 16:41:26.128Z22.449° NNE
5 mins2025-07-02 18:23:26.128Z302.452° NW2025-07-02 18:25:26.128Z323.049° NNW13.839°2025-07-02 18:28:26.128Z352.477° N
8 mins2025-07-02 23:56:26.128Z3.73° NNE2025-07-03 00:00:26.128Z54.011° ENE22.673°2025-07-03 00:04:26.128Z97.086° ESE
|